sat.trackr.live / text

‹ back to catalog

STARLINK-1905

NORAD 46746 · 2020-074H

PAYLOAD ACTIVE UNKNOWN

§ Identity

Operator
Country
US
Launch date
2020-10-24
Launch site
AFETR
Launch vehicle
Mass (kg)
RCS (m²)

Purposes: comms

External: N2YO · Heavens-Above · Gunter

§ Orbital elements

Epoch: 2026-07-05T21:51:53.132832Z

Period
87.58 min
Inclination
53.0199°
Eccentricity
0.0010173
Mean motion
16.44282955 rev/d
Perigee alt
147.8 km
Apogee alt
161.1 km
Semi-major
6,532.6 km
B*
3.2174e-4
RAAN
49.8931°
Arg perigee
255.1698°
Mean anomaly
104.8223°
Rev number
31,590

§ Raw data

STARLINK-19051 46746U 20074H   26186.91103163  .10668105  12438-4  32174-3 0  99962 46746  53.0199  49.8931 0010173 255.1698 104.8223 16.44282955315902

JSON: /api/v1/satellites/46746 · /tle

For live sub-satellite position, see the globe view (requires WebGL).

§ Visibility from observer

Set your observer location to see the next 7 days of passes ≥ 10°. The values pass through the URL so the page stays shareable.

No JS? Fill the form by hand. The geolocation button needs JavaScript.